Flag for France Weather past 2 weeks in Paris, France

Now
81 °F

Clear.


Feels Like: 80 °F
Forecast: 69 / 98 °F
Wind: 7 mph from East

Location: Villacoublay

Current Time: Jul 1, 2015 at 12:03:34 AM

Latest Report: Jun 30, 2015 at 11:30 PM


Visibility: 10 mi

Pressure: 29.98 "Hg

Humidity: 39%

Dew point: 54 °F

Location of ParisLocation

Historic Weather in Paris — Graph

°F

Paris temperature yesterday

Maximum temperature yesterday: 90 °F (at 4:00 PM)
Minimum temperature yesterday: 66 °F (at 4:00 AM)
Average temperature yesterday: 78 °F

Past Weeks' High & Low Weather Summary

 TemperatureHumidityPressure
High90 °F (Jun 30, 4:00 PM)94% (Jun 18, 8:00 AM)30.30 "Hg (Jun 18, 8:00 AM)
Low48 °F (Jun 23, 4:00 AM)17% (Jun 30, 4:30 PM)29.83 "Hg (Jun 22, 6:30 PM)
Average66 °F62%30.13 "Hg
* Reported Jun 15 11:00 PM — Jun 30 11:00 PM, Paris, Weather by CustomWeather, © 2015

Note: Actual official high and low records may vary slightly from our data, if they occured in-between our weather recording intervals... More about our weather records

Advertising

Paris weather history for previous 24 hours

 ConditionsComfort  
Time TempWeatherWind HumidityBarometerVisibility
11:00 PM
Tue, Jun 30
82 °FClear.7 mph37%30.01 "Hg10 mi
10:30 PM82 °FSunny.6 mph35%30.01 "Hg10 mi
10:00 PM84 °FSunny.6 mph33%30.01 "Hg10 mi
9:30 PM84 °FPassing clouds.6 mph35%29.98 "HgN/A
9:00 PM86 °FSunny.7 mph33%29.98 "Hg10 mi
8:30 PM88 °FPassing clouds.6 mph31%29.98 "HgN/A
8:00 PM90 °FPassing clouds.7 mph27%29.98 "HgN/A
7:00 PM90 °FPassing clouds.8 mph24%30.01 "HgN/A
6:30 PM90 °FPassing clouds.8 mph21%30.01 "HgN/A
6:00 PM90 °FPassing clouds.8 mph20%30.01 "HgN/A
5:00 PM90 °FPassing clouds.7 mph18%30.04 "HgN/A
4:30 PM90 °FPassing clouds.9 mph17%30.04 "HgN/A
4:00 PM90 °FPassing clouds.8 mph18%30.04 "HgN/A
3:00 PM88 °FPassing clouds.9 mph21%30.04 "HgN/A
2:30 PM86 °FPassing clouds.8 mph22%30.07 "HgN/A
2:00 PM86 °FSunny.N/A22%30.07 "Hg10 mi
1:30 PM84 °FPassing clouds.10 mph23%30.07 "HgN/A
1:00 PM82 °FPassing clouds.9 mph25%30.09 "HgN/A
12:30 PM82 °FPassing clouds.8 mph26%30.09 "HgN/A
12:00 PM82 °FPassing clouds.8 mph30%30.09 "HgN/A
11:30 AM81 °FPassing clouds.8 mph34%30.09 "HgN/A
11:00 AM79 °FPassing clouds.9 mph34%30.12 "HgN/A
10:30 AM77 °FPassing clouds.10 mph39%30.12 "HgN/A
10:00 AM75 °FPassing clouds.6 mph44%30.12 "HgN/A
9:30 AM75 °FSunny.7 mph47%30.12 "Hg10 mi
9:00 AM73 °FPassing clouds.5 mph53%30.12 "HgN/A
8:30 AM70 °FPassing clouds.5 mph60%30.12 "HgN/A
8:00 AM70 °FPassing clouds.6 mph60%30.12 "HgN/A
7:30 AM68 °FSunny.7 mph64%30.12 "Hg10 mi
7:00 AM68 °FSunny.6 mph64%30.12 "Hg10 mi
6:30 AM66 °FClear.6 mph68%30.15 "Hg10 mi
6:00 AM66 °FClear.5 mph68%30.15 "Hg10 mi
5:30 AM66 °FClear.6 mph68%30.12 "Hg10 mi
5:00 AM66 °FClear.5 mph68%30.15 "Hg10 mi
4:30 AM66 °FClear.5 mph68%30.15 "Hg10 mi
4:00 AM66 °FClear.5 mph68%30.15 "Hg10 mi
3:30 AM68 °FClear.3 mph64%30.15 "Hg10 mi
3:00 AM68 °FClear.6 mph64%30.15 "Hg10 mi
2:30 AM70 °FClear.8 mph60%30.15 "Hg10 mi
2:00 AM70 °FClear.7 mph60%30.18 "Hg10 mi
1:30 AM72 °FClear.7 mph53%30.18 "Hg10 mi
1:00 AM72 °FClear.7 mph53%30.18 "Hg10 mi
12:30 AM72 °FClear.7 mph53%30.18 "Hg10 mi
12:00 AM73 °FClear.10 mph50%30.18 "Hg10 mi
Weather by CustomWeather, © 2015

See weather overviewHow to use our weather pages